Location: Dziadowski
(50.3833°N, 20.0333°E)
Time: 01:05:43
(UTC+00:00)

Helios 1A Rocket - Pass Details

Date: 18 January 2026
Orbit: 427 x 437 km, 98.3° (Epoch: 6 February)

Event Time Altitude Azimuth Distance (km) Brightness Sun altitude
Rises 03:53:06 0° 145° (SE) 2,440 6.7 -24.7°
Reaches altitude 10° 03:55:13 10° 136° (SE) 1,573 5.7 -24.3°
Maximum altitude 03:58:20 36° 69° (ENE) 726 3.9 -23.9°
Enters shadow 03:59:16 30° 32° (NNE) 839 3.9 -23.7°
